This is the latest recevied weather packets stored in our database for station/object K0SNA. If no packets are shown the sender has not sent any weather packets the latest 10 day(s).
| Time | Temp. | Humidity | Pressure | Rain* | Wind** | Luminosity | Snow |
|---|---|---|---|---|---|---|---|
| 1777488830 | 11.11° C | 39% | 1018.4 hPa | 0 mm | - | 226 W/m² | - |
| 1777488526 | 11.67° C | 38% | 1018.3 hPa | 0 mm | - | 210 W/m² | - |
| 1777488224 | 11.11° C | 39% | 1018.4 hPa | 0 mm | - | 871 W/m² | - |
| 1777487922 | 10.56° C | 40% | 1018.4 hPa | 0 mm | - | 244 W/m² | - |
| 1777487619 | 11.67° C | 40% | 1018.6 hPa | 0 mm | - | 532 W/m² | - |
| 1777487317 | 11.67° C | 40% | 1018.4 hPa | 0 mm | - | 822 W/m² | - |
| 1777487014 | 11.11° C | 39% | 1018.5 hPa | 0 mm | - | 729 W/m² | - |
| 1777486710 | 11.11° C | 40% | 1018.5 hPa | 0 mm | - | 787 W/m² | - |
| 1777486408 | 11.67° C | 41% | 1018.5 hPa | 0 mm | - | 203 W/m² | - |
| 1777486105 | 10.56° C | 42% | 1018.6 hPa | 0 mm | - | 766 W/m² | - |
| 1777485801 | 10.56° C | 41% | 1018.8 hPa | 0 mm | - | 199 W/m² | - |
| 1777485497 | 11.11° C | 40% | 1018.8 hPa | 0 mm | - | 781 W/m² | - |
| 1777485194 | 11.11° C | 40% | 1019 hPa | 0 mm | - | 762 W/m² | - |
| 1777484890 | 11.11° C | 42% | 1018.7 hPa | 0 mm | - | 157 W/m² | - |
| 1777484588 | 10.56° C | 41% | 1019 hPa | 0 mm | - | 744 W/m² | - |
| 1777484284 | 10.56° C | 41% | 1019.1 hPa | 0 mm | - | 723 W/m² | - |
| 1777483980 | 11.11° C | 41% | 1018.7 hPa | 0 mm | - | 164 W/m² | - |
| 1777483676 | 10.56° C | 44% | 1018.9 hPa | 0 mm | - | 171 W/m² | - |
| 1777483372 | 10.56° C | 41% | 1018.9 hPa | 0 mm | - | 700 W/m² | - |
| 1777483067 | 10.56° C | 42% | 1019.1 hPa | 0 mm | - | 364 W/m² | - |
| 1777482765 | 10.56° C | 40% | 1018.9 hPa | 0 mm | - | 737 W/m² | - |
| 1777482460 | 10° C | 41% | 1019.4 hPa | 0 mm | - | 776 W/m² | - |
| 1777482158 | 10.56° C | 41% | 1019.2 hPa | 0 mm | - | 693 W/m² | - |
| 1777481856 | 10.56° C | 42% | 1019.3 hPa | 0 mm | - | 285 W/m² | - |
| 1777481553 | 10° C | 42% | 1019.1 hPa | 0 mm | - | 660 W/m² | - |
* Rain latest hour (hover to see other rain measurements)
** Current wind speed in m/s (hover to see current wind gust speed)